TimeCST,TemperatureF,Dew PointF,Humidity,Sea Level PressureIn,VisibilityMPH,Wind Direction,Wind SpeedMPH,Gust SpeedMPH,PrecipitationIn,Events,Conditions,WindDirDegrees,DateUTC
12:15 AM,35.6,26.6,70,30.24,10.0,Calm,Calm,-,N/A,,Clear,0,2013-01-26 06:15:00
12:55 AM,37.4,26.6,65,30.24,10.0,NE,4.6,-,N/A,,Clear,50,2013-01-26 06:55:00
1:36 AM,37.4,26.6,65,30.23,10.0,East,4.6,-,N/A,,Clear,80,2013-01-26 07:36:00
1:55 AM,37.4,26.6,65,30.24,10.0,East,4.6,-,N/A,,Clear,80,2013-01-26 07:55:00
2:15 AM,37.4,28.4,70,30.24,10.0,ENE,4.6,-,N/A,,Clear,70,2013-01-26 08:15:00
3:15 AM,37.4,26.6,65,30.22,10.0,ENE,5.8,-,N/A,,Clear,70,2013-01-26 09:15:00
3:35 AM,37.4,26.6,65,30.22,10.0,East,5.8,-,N/A,,Clear,90,2013-01-26 09:35:00
4:15 AM,37.4,26.6,65,30.21,10.0,East,5.8,-,N/A,,Clear,100,2013-01-26 10:15:00
4:35 AM,37.4,26.6,65,30.21,10.0,East,4.6,-,N/A,,Clear,90,2013-01-26 10:35:00
4:55 AM,37.4,24.8,60,30.21,10.0,ESE,4.6,-,N/A,,Clear,110,2013-01-26 10:55:00
5:15 AM,37.4,24.8,60,30.21,10.0,East,4.6,-,N/A,,Clear,100,2013-01-26 11:15:00
5:35 AM,37.4,24.8,60,30.21,10.0,ESE,5.8,-,N/A,,Clear,110,2013-01-26 11:35:00
5:55 AM,37.4,26.6,65,30.21,10.0,East,5.8,-,N/A,,Clear,90,2013-01-26 11:55:00
6:16 AM,37.4,26.6,65,30.21,10.0,East,8.1,-,N/A,,Clear,100,2013-01-26 12:16:00
6:35 AM,37.4,26.6,65,30.22,10.0,East,8.1,-,N/A,,Clear,100,2013-01-26 12:35:00
6:55 AM,37.4,24.8,60,30.22,10.0,East,10.4,-,N/A,,Clear,90,2013-01-26 12:55:00
7:15 AM,37.4,24.8,60,30.22,10.0,East,9.2,-,N/A,,Clear,90,2013-01-26 13:15:00
7:16 AM,37.4,24.8,60,30.23,10.0,East,8.1,-,N/A,,Clear,90,2013-01-26 13:16:00
7:35 AM,37.4,24.8,60,30.23,10.0,East,8.1,-,N/A,,Clear,90,2013-01-26 13:35:00
8:15 AM,39.2,24.8,56,30.24,10.0,East,6.9,-,N/A,,Clear,100,2013-01-26 14:15:00
8:56 AM,41.0,24.8,53,30.24,10.0,East,6.9,-,N/A,,Clear,100,2013-01-26 14:56:00
9:15 AM,42.8,24.8,49,30.24,10.0,East,6.9,-,N/A,,Clear,100,2013-01-26 15:15:00
9:35 AM,44.6,24.8,46,30.24,10.0,East,10.4,-,N/A,,Clear,100,2013-01-26 15:35:00
9:55 AM,46.4,21.2,37,30.24,10.0,ESE,10.4,17.3,N/A,,Clear,110,2013-01-26 15:55:00
10:15 AM,48.2,21.2,34,30.24,10.0,ESE,12.7,-,N/A,,Clear,120,2013-01-26 16:15:00
10:35 AM,48.2,21.2,34,30.25,10.0,ESE,10.4,-,N/A,,Clear,110,2013-01-26 16:35:00
11:15 AM,51.8,23.0,33,30.25,10.0,SE,10.4,-,N/A,,Clear,140,2013-01-26 17:15:00
11:35 AM,53.6,24.8,33,30.24,10.0,ESE,10.4,-,N/A,,Clear,120,2013-01-26 17:35:00
11:55 AM,53.6,24.8,33,30.24,10.0,SE,8.1,-,N/A,,Clear,140,2013-01-26 17:55:00
12:15 PM,55.4,23.0,29,30.22,10.0,SE,8.1,-,N/A,,Clear,140,2013-01-26 18:15:00
12:35 PM,55.4,23.0,29,30.21,10.0,East,6.9,-,N/A,,Clear,100,2013-01-26 18:35:00
12:55 PM,55.4,24.8,31,30.20,10.0,ESE,5.8,-,N/A,,Clear,120,2013-01-26 18:55:00
1:36 PM,59.0,23.0,25,30.16,10.0,ESE,8.1,-,N/A,,Clear,120,2013-01-26 19:36:00
1:55 PM,59.0,21.2,23,30.16,10.0,SE,8.1,-,N/A,,Clear,130,2013-01-26 19:55:00
2:15 PM,60.8,21.2,22,30.15,10.0,SSE,13.8,17.3,N/A,,Mostly Cloudy,150,2013-01-26 20:15:00
2:35 PM,60.8,19.4,20,30.15,10.0,South,11.5,17.3,N/A,,Mostly Cloudy,170,2013-01-26 20:35:00
2:55 PM,60.8,19.4,20,30.15,10.0,SSE,11.5,-,N/A,,Mostly Cloudy,150,2013-01-26 20:55:00
3:15 PM,59.0,19.4,22,30.15,10.0,South,10.4,-,N/A,,Mostly Cloudy,170,2013-01-26 21:15:00
3:35 PM,57.2,19.4,23,30.15,10.0,South,9.2,-,N/A,,Mostly Cloudy,180,2013-01-26 21:35:00
4:15 PM,55.4,19.4,25,30.15,10.0,SSE,10.4,-,N/A,,Overcast,150,2013-01-26 22:15:00
4:35 PM,53.6,19.4,26,30.15,10.0,SSE,9.2,-,N/A,,Overcast,160,2013-01-26 22:35:00
4:55 PM,53.6,19.4,26,30.14,10.0,SSE,10.4,-,N/A,,Overcast,150,2013-01-26 22:55:00
5:15 PM,53.6,19.4,26,30.14,10.0,SE,9.2,-,N/A,,Overcast,140,2013-01-26 23:15:00
5:35 PM,53.6,19.4,26,30.15,10.0,SSE,8.1,-,N/A,,Overcast,150,2013-01-26 23:35:00
5:55 PM,51.8,19.4,28,30.15,10.0,SSE,9.2,-,N/A,,Overcast,150,2013-01-26 23:55:00
6:55 PM,51.8,19.4,28,30.16,10.0,South,5.8,-,N/A,,Overcast,170,2013-01-27 00:55:00
7:15 PM,51.8,19.4,28,30.16,10.0,SSE,8.1,-,N/A,,Overcast,160,2013-01-27 01:15:00
7:35 PM,51.8,19.4,28,30.16,10.0,SSE,9.2,-,N/A,,Overcast,160,2013-01-27 01:35:00
7:55 PM,50.0,19.4,30,30.15,10.0,SSE,10.4,-,N/A,,Overcast,150,2013-01-27 01:55:00
8:15 PM,50.0,19.4,30,30.16,10.0,SSE,9.2,-,N/A,,Overcast,150,2013-01-27 02:15:00